Sallisaw, OK

5:23 PM CDT on September 21, 2017 (GMT -0500)
Sallisaw Municipal

Weather History for KJSV - November, 2012

Change the Weather History Date:

Monday, November 5, 2012

  Actual Average Record
Temperature  
Mean Temperature 57 °F -  
Max Temperature 68 °F 63 °F 82 °F (1978)
Min Temperature 44 °F 41 °F 22 °F (1954)
Degree Days  
Heating Degree Days 8    
Growing Degree Days 7 (Base 50)    
Moisture  
Dew Point 41 °F    
Average Humidity 62    
Maximum Humidity 82    
Minimum Humidity 37    
Precipitation  
Precipitation 0.00 in - - ()
Sea Level Pressure  
Sea Level Pressure 30.05 in    
Wind  
Wind Speed 6 mph (North)    
Max Wind Speed 23 mph    
Max Gust Speed 32 mph    
Visibility 10 miles    
Events      
Averages and records for this station are not official NWS values.
T = Trace of Precipitation, MM = Missing Value Source: NWS Daily Summary

Daily Weather History Graph

Daily Weather History Graph

Search for Another Location

Airport or City:

Trip Planner

Search our weather history database for the weather conditions in past years. The results will help you decide how hot, cold, wet, or windy it might be!

Date:

Astronomy

Nov. 05, 2012 Rise Set
Actual Time 6:45 AM CST 5:19 PM CST
Civil Twilight 6:18 AM CST 5:46 PM CST
Nautical Twilight 5:48 AM CST 6:16 PM CST
Astronomical Twilight 5:18 AM CST 6:46 PM CST
Moon 10:58 PM CST (11/5) 12:04 PM CST (11/5)
Length of Visible Light 11h 27m
Length of Day
10h 34m
Waning Gibbous, 62% of the Moon is Illuminated
Nov 5
Waning Gibbous
Nov 6
Last Quarter
Nov 13
New
Nov 20
First Quarter
Nov 28
Full

Hourly Weather History & Observations

Time (CST) Temp. Windchill Dew Point Humidity Pressure Visibility Wind Dir Wind Speed Gust Speed Precip Events Conditions
12:15 AM 51.8 °F - 41.0 °F 67% 30.09 in 10.0 mi East 5.8 mph - N/A   Clear
12:35 AM 51.8 °F - 41.0 °F 67% 30.09 in 10.0 mi ENE 5.8 mph - N/A   Mostly Cloudy
12:55 AM 51.8 °F - 41.0 °F 67% 30.09 in 10.0 mi ENE 5.8 mph - N/A   Overcast
1:15 AM 51.8 °F - 41.0 °F 67% 30.09 in 10.0 mi ENE 3.5 mph - N/A   Overcast
1:35 AM 51.8 °F - 41.0 °F 67% 30.09 in 10.0 mi East 4.6 mph - N/A   Overcast
1:55 AM 51.8 °F - 42.8 °F 71% 30.09 in 10.0 mi East 4.6 mph - N/A   Overcast
2:15 AM 51.8 °F - 42.8 °F 71% 30.08 in 10.0 mi ENE 3.5 mph - N/A   Scattered Clouds
2:35 AM 51.8 °F - 42.8 °F 71% 30.08 in 10.0 mi ENE 3.5 mph - N/A   Scattered Clouds
2:55 AM 51.8 °F - 42.8 °F 71% 30.07 in 10.0 mi East 4.6 mph - N/A   Scattered Clouds
3:15 AM 51.8 °F - 42.8 °F 71% 30.07 in 10.0 mi Calm Calm - N/A   Scattered Clouds
3:35 AM 51.8 °F - 42.8 °F 71% 30.07 in 10.0 mi ENE 3.5 mph - N/A   Clear
3:55 AM 51.8 °F - 42.8 °F 71% 30.06 in 10.0 mi ENE 3.5 mph - N/A   Clear
4:15 AM 51.8 °F - 42.8 °F 71% 30.06 in 10.0 mi Calm Calm - N/A   Clear
4:35 AM 50.0 °F - 42.8 °F 76% 30.05 in 10.0 mi East 3.5 mph - N/A   Clear
4:55 AM 51.8 °F - 42.8 °F 71% 30.05 in 10.0 mi East 3.5 mph - N/A   Clear
5:15 AM 50.0 °F - 42.8 °F 76% 30.04 in 10.0 mi Calm Calm - N/A   Clear
5:35 AM 50.0 °F - 42.8 °F 76% 30.04 in 10.0 mi East 4.6 mph - N/A   Clear
5:55 AM 50.0 °F - 42.8 °F 76% 30.04 in 10.0 mi Calm Calm - N/A   Scattered Clouds
6:35 AM 48.2 °F - 42.8 °F 82% 30.03 in 10.0 mi ENE 3.5 mph - N/A   Mostly Cloudy
6:55 AM 50.0 °F - 42.8 °F 76% 30.03 in 10.0 mi East 3.5 mph - N/A   Overcast
7:15 AM 50.0 °F - 42.8 °F 76% 30.04 in 10.0 mi East 3.5 mph - N/A   Overcast
7:35 AM 51.8 °F - 42.8 °F 71% 30.04 in 10.0 mi ENE 3.5 mph - N/A   Overcast
7:55 AM 51.8 °F - 44.6 °F 76% 30.04 in 10.0 mi Calm Calm - N/A   Overcast
8:15 AM 51.8 °F - 44.6 °F 76% 30.04 in 10.0 mi ENE 3.5 mph - N/A   Mostly Cloudy
8:35 AM 53.6 °F - 44.6 °F 72% 30.05 in 10.0 mi Calm Calm - N/A   Mostly Cloudy
8:55 AM 53.6 °F - 44.6 °F 72% 30.04 in 10.0 mi Calm Calm - N/A   Scattered Clouds
9:35 AM 55.4 °F - 44.6 °F 67% 30.04 in 10.0 mi Calm Calm - N/A   Clear
9:55 AM 59.0 °F - 46.4 °F 63% 30.04 in 10.0 mi West 4.6 mph - N/A   Clear
10:15 AM 60.8 °F - 46.4 °F 59% 30.04 in 10.0 mi West 8.1 mph - N/A   Clear
10:35 AM 60.8 °F - 46.4 °F 59% 30.04 in 10.0 mi West 3.5 mph - N/A   Clear
10:55 AM 62.6 °F - 46.4 °F 55% 30.03 in 10.0 mi West 5.8 mph - N/A   Clear
11:35 AM 66.2 °F - 42.8 °F 43% 30.02 in 10.0 mi NW 17.3 mph - N/A   Scattered Clouds
11:55 AM 66.2 °F - 42.8 °F 43% 30.01 in 10.0 mi NW 9.2 mph - N/A   Scattered Clouds
12:15 PM 68.0 °F - 41.0 °F 37% 30.01 in 10.0 mi NW 17.3 mph 21.9 mph N/A   Scattered Clouds
12:35 PM 68.0 °F - 41.0 °F 37% 30.00 in 10.0 mi WNW 18.4 mph 25.3 mph N/A   Scattered Clouds
12:55 PM 66.2 °F - 41.0 °F 40% 30.00 in 10.0 mi WNW 23.0 mph 32.2 mph N/A   Scattered Clouds
1:15 PM 66.2 °F - 39.2 °F 37% 30.00 in 10.0 mi NW 21.9 mph 26.5 mph N/A   Scattered Clouds
1:35 PM 64.4 °F - 41.0 °F 42% 30.00 in 10.0 mi NW 17.3 mph 26.5 mph N/A   Scattered Clouds
1:55 PM 66.2 °F - 39.2 °F 37% 29.99 in 10.0 mi NNW 15.0 mph 28.8 mph N/A   Scattered Clouds
2:35 PM 64.4 °F - 39.2 °F 40% 29.99 in 10.0 mi WNW 17.3 mph 25.3 mph N/A   Clear
2:55 PM 64.4 °F - 39.2 °F 40% 30.00 in 10.0 mi NNW 19.6 mph 23.0 mph N/A   Clear
3:15 PM 62.6 °F - 39.2 °F 42% 30.00 in 10.0 mi NW 19.6 mph 25.3 mph N/A   Clear
3:35 PM 62.6 °F - 39.2 °F 42% 30.01 in 10.0 mi NNW 13.8 mph 23.0 mph N/A   Clear
3:55 PM 62.6 °F - 39.2 °F 42% 30.01 in 10.0 mi NNW 15.0 mph 20.7 mph N/A   Clear
4:15 PM 60.8 °F - 41.0 °F 48% 30.02 in 10.0 mi NW 12.7 mph - N/A   Clear
4:35 PM 59.0 °F - 41.0 °F 51% 30.03 in 10.0 mi North 12.7 mph 20.7 mph N/A   Scattered Clouds
4:55 PM 57.2 °F - 39.2 °F 51% 30.03 in 10.0 mi NNW 11.5 mph 21.9 mph N/A   Scattered Clouds
5:15 PM 55.4 °F - 41.0 °F 58% 30.05 in 10.0 mi NNW 13.8 mph 19.6 mph N/A   Scattered Clouds
5:35 PM 55.4 °F - 41.0 °F 58% 30.05 in 10.0 mi North 8.1 mph - N/A   Mostly Cloudy
5:55 PM 55.4 °F - 39.2 °F 54% 30.06 in 10.0 mi North 9.2 mph - N/A   Overcast
6:15 PM 53.6 °F - 39.2 °F 58% 30.07 in 10.0 mi NNW 8.1 mph - N/A   Overcast
6:35 PM 53.6 °F - 39.2 °F 58% 30.08 in 10.0 mi NNW 8.1 mph - N/A   Overcast
6:55 PM 53.6 °F - 39.2 °F 58% 30.08 in 10.0 mi NNW 9.2 mph - N/A   Overcast
7:15 PM 53.6 °F - 39.2 °F 58% 30.08 in 10.0 mi NNW 11.5 mph - N/A   Overcast
7:35 PM 53.6 °F - 37.4 °F 54% 30.08 in 10.0 mi NNW 10.4 mph 16.1 mph N/A   Overcast
7:55 PM 51.8 °F - 37.4 °F 58% 30.09 in 10.0 mi NNW 11.5 mph - N/A   Scattered Clouds
8:15 PM 51.8 °F - 37.4 °F 58% 30.09 in 10.0 mi North 4.6 mph - N/A   Scattered Clouds
8:35 PM 50.0 °F - 37.4 °F 62% 30.10 in 10.0 mi Calm Calm - N/A   Scattered Clouds
8:55 PM 50.0 °F - 37.4 °F 62% 30.10 in 10.0 mi Calm Calm - N/A   Scattered Clouds
9:15 PM 48.2 °F - 37.4 °F 66% 30.10 in 10.0 mi Calm Calm - N/A   Clear
9:35 PM 46.4 °F 45.2 °F 37.4 °F 71% 30.10 in 10.0 mi NW 3.5 mph - N/A   Clear
9:55 PM 46.4 °F 44.3 °F 37.4 °F 71% 30.10 in 10.0 mi NW 4.6 mph - N/A   Clear
10:15 PM 46.4 °F 43.5 °F 37.4 °F 71% 30.10 in 10.0 mi NW 5.8 mph - N/A   Clear
10:35 PM 46.4 °F 42.9 °F 37.4 °F 71% 30.10 in 10.0 mi NW 6.9 mph - N/A   Clear
10:55 PM 46.4 °F 43.5 °F 37.4 °F 71% 30.10 in 10.0 mi NNW 5.8 mph - N/A   Clear
11:15 PM 46.4 °F 44.3 °F 37.4 °F 71% 30.10 in 10.0 mi North 4.6 mph - N/A   Clear
11:35 PM 46.4 °F 43.5 °F 37.4 °F 71% 30.10 in 10.0 mi NNW 5.8 mph - N/A   Scattered Clouds
11:55 PM 44.6 °F 43.1 °F 37.4 °F 76% 30.10 in 10.0 mi NNW 3.5 mph - N/A   Scattered Clouds